This demonstration page uses our WeatherBlox Daily Observations layout. Learn more.

Left ArrowRight Arrow

Hourly Observations for July 18, 2016

Temp ( °F °C ) Dew Point ( °F °C ) Humidity (%) Winds ( mph kmh ) Pressure ( in mb ) Visibility ( mi km ) Precip ( " mm )
12:59 am 00:59 Partly Cloudy 77 25 73 22.8 88 88 SSW 5 7 30.19 1022 9 14 0.00 0.00
1:59 am 01:59 Partly Cloudy 77 25 72 22.2 85 85 SSW 5 7 30.19 1022 9 14 0.00 0.00
2:59 am 02:59 Partly Cloudy 77 25 74 23.3 90 90 SSW 6 9 30.19 1022 8 13 0.00 0.00
3:59 am 03:59 Partly Cloudy 76 24.4 74 23.3 94 94 SW 5 7 30.19 1022 8 13 0.00 0.00
4:59 am 04:59 Mostly Clear 76 24.4 73 22.8 91 91 SW 3 6 30.19 1022 8 13 0.00 0.00
5:59 am 05:59 Partly Cloudy with Mist and Fog 75 23.9 73 22.8 94 94 Calm 30.18 1022 6 10 0.00 0.00
6:59 am 06:59 Partly Cloudy with Mist and Fog 77 25 74 23.3 90 90 Calm 30.20 1023 6 10 0.00 0.00
7:59 am 07:59 Mostly Cloudy 81 27.2 75 23.9 82 82 S 5 7 30.20 1023 8 13 0.00 0.00
8:59 am 08:59 Mostly Cloudy 83 28.3 75 23.9 77 77 VRB 5 7 30.21 1023 9 14 0.00 0.00
9:59 am 09:59 Partly Cloudy 86 30 75 23.9 70 70 VRB 6 9 30.20 1023 9 14 0.00 0.00
10:59 am 10:59 Partly Cloudy 88 31.1 75 23.9 66 66 SSW 8 13 30.19 1023 9 14 0.00 0.00
11:59 am 11:59 Partly Cloudy 90 32.2 74 23.3 59 59 WSW 8 13 30.19 1022 10 16 0.00 0.00
12:59 pm 12:59 Mostly Cloudy 92 33.3 72 22.2 52 52 SW 9 15 30.18 1022 10 16 0.00 0.00
1:59 pm 13:59 Mostly Cloudy 92 33.3 71 21.7 51 51 SSW 13 20 30.16 1021 10 16 0.00 0.00
2:59 pm 14:59 Mostly Cloudy 93 33.9 71 21.7 49 49 SW 10 17 30.14 1021 10 16 0.00 0.00
3:59 pm 15:59 Mostly Cloudy 93 33.9 73 22.8 52 52 SSW 10 17 30.12 1020 10 16 0.00 0.00
4:59 pm 16:59 Mostly Cloudy 92 33.3 71 21.7 51 51 WSW 13 20 30.11 1020 10 16 0.00 0.00
5:59 pm 17:59 Mostly Cloudy 92 33.3 72 22.2 52 52 SW 12 19 30.10 1019 10 16 0.00 0.00
6:59 pm 18:59 Partly Cloudy 90 32.2 73 22.8 58 58 SW 7 11 30.08 1019 10 16 0.00 0.00
7:59 pm 19:59 Mostly Cloudy 88 31.1 73 22.8 61 61 SW 7 11 30.09 1019 10 16 0.00 0.00
8:59 pm 20:59 Mostly Cloudy 86 30 73 22.8 65 65 SSW 7 11 30.11 1020 10 16 0.00 0.00
9:59 pm 21:59 Mostly Cloudy 85 29.4 74 23.3 70 70 SSW 6 9 30.12 1020 10 16 0.00 0.00
10:59 pm 22:59 Mostly Cloudy 85 29.4 74 23.3 70 70 SSW 7 11 30.12 1020 10 16 0.00 0.00
11:59 pm 23:59 Mostly Cloudy 84 28.9 74 23.3 72 72 SW 9 15 30.10 1019 10 16 0.00 0.00

Powered by AerisWeather